GFSNE_850_thetae_000.txt.gz
Theta_e
296 295 295 294 293 293 294 295 295 295 294 294 296 297 297 299 300 300 299 299 299 298 298 297 299 299 299 300 299 300 301 301 301 301 302 302 303 305
295 294 295 294 294 294 294 294 293 294 294 294 294 294 295 296 297 298 298 298 298 298 298 297 297 298 299 299 299 300 300 301 301 301 301 300 300 301
292 293 293 293 293 293 293 293 292 292 293 293 293 293 294 294 296 296 296 296 296 296 295 295 295 295 297 298 298 298 298 298 298 299 299 299 299 299
291 291 291 291 290 291 290 291 291 291 291 291 292 292 292 292 293 293 294 295 295 296 295 295 295 294 293 293 295 297 297 295 296 296 296 296 297 297
288 288 289 289 290 289 289 289 290 290 290 290 290 290 291 291 291 291 292 293 294 294 294 294 294 293 293 293 292 292 293 296 296 295 295 296 296 296
286 285 287 288 288 289 289 289 289 289 289 288 288 288 289 290 290 290 290 291 291 292 293 293 293 293 292 292 292 292 291 292 292 293 294 295 295 296
285 285 284 286 287 287 288 287 287 287 286 286 286 287 288 288 289 291 291 291 292 292 292 292 292 293 293 292 292 291 291 291 290 290 291 293 294 294
284 283 283 285 285 286 287 286 285 285 284 284 284 284 285 286 287 288 288 289 289 290 290 291 291 291 292 292 293 293 292 291 291 291 291 290 289 290
281 282 283 284 285 285 285 285 285 285 285 284 284 284 283 284 285 286 286 287 287 288 288 289 290 290 290 291 291 291 291 291 292 292 291 291 291 290
280 281 282 282 283 283 283 283 283 283 283 283 283 283 284 284 284 284 285 285 286 286 287 288 288 288 288 289 289 290 289 289 290 291 292 292 291 291
280 280 281 281 281 281 282 282 282 282 282 282 283 283 284 284 283 283 284 284 285 285 286 286 287 287 287 287 287 287 287 287 287 287 288 289 290 290
280 280 280 280 282 282 282 282 282 282 282 282 283 283 283 283 284 285 285 284 283 283 284 285 286 287 287 287 286 286 286 287 288 287 287 287 288 289
279 279 280 281 281 281 281 281 281 281 281 281 281 281 282 282 282 283 283 285 285 284 285 285 285 286 286 287 287 286 287 287 287 289 289 289 288 288
279 279 280 280 280 280 280 280 279 279 280 281 281 282 282 283 284 284 284 284 285 286 286 286 286 286 286 285 286 286 287 288 288 288 288 289 289 289
278 278 279 279 279 279 280 280 280 280 281 281 281 282 282 283 284 284 285 285 285 286 286 286 286 285 285 285 286 286 287 287 287 288 289 289 289 288
278 278 278 278 279 279 279 279 280 280 280 281 281 282 282 283 284 285 286 287 286 286 286 286 286 285 285 285 285 286 286 286 286 287 288 288 289 288
278 278 277 278 278 278 278 279 279 279 279 280 281 281 282 283 284 285 286 286 286 286 286 287 286 286 286 285 285 285 285 285 285 286 287 288 288 288
277 277 277 277 277 277 277 277 278 278 278 279 280 281 282 282 284 285 286 287 286 286 287 287 287 287 286 286 285 285 285 285 286 286 286 286 288 288
276 276 276 276 276 276 276 277 278 278 278 279 280 280 281 282 283 284 285 285 286 287 287 287 287 287 287 287 287 287 286 285 285 286 286 286 287 288
276 275 275 275 275 275 276 277 277 277 278 278 279 280 281 282 282 282 283 284 284 286 287 286 287 287 287 286 286 287 287 287 286 286 286 286 287 288
275 275 275 275 275 275 275 276 277 277 277 278 279 279 280 281 281 281 282 282 283 284 284 284 284 284 285 285 286 286 286 285 285 285 285 285 287 287
274 274 275 275 275 275 275 275 276 276 276 276 278 279 279 280 281 281 281 281 282 282 282 283 283 283 283 284 285 285 284 284 283 283 284 284 285 285
274 274 274 274 274 274 274 274 275 275 275 276 277 278 278 279 280 280 280 280 280 281 281 282 282 283 283 282 283 284 283 282 282 283 283 282 283 283

GFSNE_850_thetae_003.txt.gz
Theta_e
293 294 294 295 295 294 295 295 295 295 294 293 293 292 294 295 297 297 300 301 300 300 300 299 299 298 298 299 299 300 302 303 303 302 302 302 303 304
290 291 292 292 293 293 294 294 294 293 293 293 292 292 293 294 294 296 297 299 299 298 298 298 298 298 296 298 299 300 301 303 303 302 301 301 301 300
290 290 290 289 290 290 291 290 290 291 292 292 292 292 291 292 292 293 294 296 297 298 297 297 296 295 296 296 297 298 299 300 301 301 301 300 300 300
289 289 288 287 286 289 290 290 290 290 289 290 291 291 291 291 291 292 292 293 295 296 296 295 295 295 294 294 293 294 295 296 296 296 297 298 298 297
287 287 286 286 285 285 288 289 289 290 290 289 289 289 290 290 291 291 291 291 293 293 294 295 295 294 294 294 293 293 293 293 294 295 295 295 295 295
287 286 286 285 285 284 286 287 288 288 289 289 288 288 288 289 288 289 289 290 291 291 292 292 293 293 293 293 293 292 292 292 292 292 292 294 295 295
286 284 283 282 283 285 285 286 287 287 287 287 286 286 286 285 286 287 288 289 291 291 292 292 292 292 292 292 292 292 291 291 291 291 291 291 291 291
283 282 281 282 283 284 285 285 286 286 285 284 284 284 284 284 284 285 286 287 287 289 290 291 291 291 291 292 292 292 292 291 291 291 291 291 291 291
282 281 280 280 281 282 282 283 283 284 284 284 284 284 284 283 283 283 283 284 284 286 287 288 289 290 290 290 290 290 291 292 292 292 292 292 292 291
281 280 280 281 281 281 281 281 282 282 282 282 282 282 282 283 283 283 284 284 284 284 285 285 286 287 288 288 288 288 289 290 290 291 291 290 291 291
280 280 279 279 280 281 281 281 282 282 282 282 282 282 282 283 283 283 283 283 283 284 284 284 285 285 286 286 287 287 287 287 287 287 287 287 288 288
279 279 279 280 281 281 280 281 281 281 281 281 281 282 282 282 283 283 283 284 284 284 284 284 284 284 284 286 286 286 286 286 286 286 287 287 287 287
278 278 278 279 280 280 280 280 280 279 279 280 280 280 281 281 281 282 282 282 283 283 284 285 284 284 285 285 285 286 286 286 286 286 287 288 288 288
278 278 279 279 279 279 279 280 279 279 280 280 280 281 281 281 282 283 283 283 283 284 284 285 285 285 285 285 285 285 285 286 287 287 287 288 288 288
278 278 278 278 278 279 279 279 279 280 280 280 280 280 281 281 282 283 283 284 284 285 285 285 285 286 286 285 285 285 285 285 286 286 286 287 288 288
278 278 277 278 278 278 278 278 278 279 279 279 280 281 281 282 283 283 284 285 286 285 286 285 285 285 285 285 285 285 285 285 285 285 285 285 286 287
277 277 277 277 277 277 277 277 278 278 278 279 280 281 281 282 283 284 285 286 286 286 286 286 286 286 286 285 285 285 285 285 285 285 285 285 286 287
277 276 276 276 276 276 276 277 277 277 278 279 280 280 281 282 283 284 285 286 286 287 286 286 287 287 287 286 286 286 286 285 285 285 286 286 286 286
276 276 275 275 275 275 276 276 277 277 278 279 279 280 281 282 282 283 284 284 285 286 287 287 287 287 286 287 286 287 287 287 285 285 285 285 285 286
275 275 275 275 275 275 275 276 276 276 277 278 279 280 281 281 281 282 282 283 283 284 284 285 285 285 286 286 286 286 286 286 286 286 286 286 286 286
275 275 275 275 275 274 275 275 275 276 276 278 279 279 280 280 280 281 281 281 282 282 283 283 283 283 284 284 285 285 285 285 285 285 285 285 285 286
275 275 275 275 274 274 274 274 275 275 276 277 278 279 279 280 280 280 280 280 281 281 281 282 283 283 283 283 284 285 284 284 284 283 283 283 284 285
277 275 275 275 274 274 274 274 274 274 274 275 277 278 278 279 279 279 279 279 280 279 281 282 282 282 283 283 283 283 283 282 282 282 282 282 282 283

GFSNE_850_thetae_006.txt.gz
Theta_e
288 288 289 290 291 291 292 291 290 291 292 293 293 292 292 292 294 295 296 297 299 301 301 301 301 302 302 300 298 298 299 303 308 310 307 302 303 305
288 288 288 289 289 288 287 288 290 291 290 290 291 291 291 291 292 292 293 294 296 299 299 300 299 297 297 298 298 298 299 300 302 307 306 304 303 302
288 289 288 288 288 287 287 285 288 289 291 290 289 290 290 291 291 292 292 293 295 296 298 299 298 298 297 295 296 296 298 299 301 303 304 304 303 301
288 288 287 286 285 286 286 285 284 287 289 290 290 289 290 290 290 291 291 291 292 294 296 298 296 295 294 294 294 294 294 296 298 297 299 300 299 299
288 287 287 285 285 284 284 284 284 285 288 289 289 289 289 289 289 289 289 290 291 292 292 294 296 295 295 294 294 294 293 293 293 295 297 296 295 295
287 286 284 283 282 282 283 284 285 285 286 286 287 287 287 288 288 287 288 288 290 290 291 292 292 294 295 294 293 293 293 292 292 292 292 292 293 294
284 283 283 281 281 282 283 284 285 286 286 287 286 285 286 286 286 285 285 285 287 288 290 291 291 292 292 292 293 292 292 292 291 291 291 291 291 291
283 283 282 280 280 280 281 282 282 283 283 284 285 285 284 284 284 283 283 284 284 285 287 289 289 290 290 291 292 292 292 292 292 291 291 291 291 291
282 281 280 280 279 280 280 281 281 281 282 282 282 283 283 283 283 283 283 283 283 284 285 287 288 289 289 289 290 291 291 292 292 292 292 292 292 292
281 280 279 279 279 279 280 281 281 281 281 281 281 281 281 281 281 282 282 282 283 284 284 284 286 287 288 287 287 288 288 290 291 291 291 291 291 291
279 279 279 279 279 280 280 280 280 281 281 281 281 282 282 282 282 282 283 283 283 283 283 283 284 284 285 285 285 286 286 287 287 288 289 289 288 288
278 278 278 278 279 280 280 280 280 280 280 280 280 280 281 281 282 282 283 283 283 283 283 284 284 284 284 285 285 285 286 286 286 286 286 287 286 286
278 278 278 279 279 279 279 279 279 280 279 279 279 280 280 281 281 281 281 282 282 282 282 283 284 284 284 284 285 285 286 286 286 287 287 286 286 287
278 278 278 278 278 278 279 279 279 279 280 280 280 280 280 281 281 281 282 282 282 283 283 283 283 284 285 285 285 285 285 285 285 286 286 287 287 287
278 278 277 277 278 278 278 278 278 279 279 279 280 280 280 281 281 282 283 283 284 284 284 284 284 284 285 285 285 285 285 285 285 285 286 286 286 286
277 277 277 277 277 277 277 278 278 278 278 279 279 280 281 282 282 283 283 284 284 285 285 285 285 285 285 285 285 286 285 285 285 285 286 286 285 285
277 277 276 276 276 276 277 277 277 277 278 279 280 280 281 282 283 284 284 285 286 286 286 286 286 286 286 285 285 285 285 285 285 285 285 285 285 285
276 276 275 275 275 275 276 276 277 277 278 279 280 280 281 282 283 283 284 285 285 286 286 286 286 287 286 286 286 286 286 286 286 285 285 285 285 285
275 275 275 275 275 275 275 275 276 276 277 278 279 280 281 281 282 282 283 284 285 285 285 285 286 286 286 286 286 286 286 286 286 285 285 285 285 285
275 275 275 275 274 274 274 275 275 276 277 278 279 280 280 280 281 281 281 282 283 283 284 284 285 286 286 286 286 286 286 286 286 286 286 286 285 286
276 275 275 274 274 274 274 274 274 274 276 277 278 279 279 280 280 280 280 281 281 282 282 283 283 283 284 284 284 285 285 285 285 285 285 285 285 285
277 276 275 274 274 274 274 274 274 274 274 276 277 278 278 279 279 279 279 279 280 280 280 281 282 283 282 282 283 284 284 284 283 283 283 283 283 284
277 277 277 275 274 274 274 274 274 274 273 275 276 277 277 278 278 278 278 278 279 279 280 282 282 282 282 283 282 283 283 282 282 282 282 282 282 282

GFSNE_850_thetae_009.txt.gz
Theta_e
288 288 288 287 287 288 288 288 287 288 287 288 290 290 292 291 292 292 293 294 297 297 300 300 301 301 302 299 300 299 298 299 300 306 307 308 306 304
287 287 288 288 288 287 287 286 286 285 286 287 288 289 290 290 290 291 291 292 292 293 295 299 299 300 301 300 301 301 301 298 300 305 307 309 307 304
288 288 288 287 287 287 286 286 285 285 285 284 286 288 290 289 289 290 290 291 292 292 295 296 299 298 297 297 296 298 300 299 299 302 302 303 305 304
288 287 287 287 287 286 284 283 283 283 284 284 285 288 288 288 289 289 289 290 291 291 291 293 296 297 297 296 296 294 294 298 298 297 298 302 302 302
287 287 286 284 283 282 282 282 282 283 284 284 284 288 287 287 288 288 288 289 289 290 291 291 293 295 296 295 294 294 294 293 294 295 296 296 296 296
286 284 283 283 282 281 281 281 283 284 285 286 285 286 286 287 287 286 286 288 288 287 289 290 291 292 295 295 294 293 293 293 293 292 292 292 294 295
284 283 283 282 281 280 280 281 281 282 282 283 284 285 285 285 286 285 285 285 286 286 287 289 290 291 291 293 294 293 293 293 292 292 292 291 291 291
283 282 282 280 280 279 279 280 281 281 281 282 282 283 283 284 284 284 284 284 284 284 285 287 288 289 290 291 292 292 292 292 292 292 291 291 291 291
281 280 280 279 279 279 279 280 280 280 281 281 281 282 282 282 283 283 282 282 283 283 283 284 286 287 289 288 289 290 291 292 292 292 292 291 291 292
279 279 278 278 279 279 280 281 280 280 280 281 281 281 281 281 281 281 281 282 282 282 282 283 284 285 285 289 289 287 288 289 290 291 291 291 291 291
279 279 278 278 279 279 280 280 280 280 280 280 280 280 281 282 282 282 282 282 282 282 282 283 283 284 284 284 285 288 287 288 288 288 288 288 288 289
279 279 278 278 279 279 279 279 279 279 280 279 279 279 280 280 281 281 282 282 283 283 283 283 283 284 284 284 285 285 285 285 285 286 286 287 287 287
278 278 278 278 278 278 279 279 279 279 279 279 279 280 280 280 280 280 281 281 282 282 282 282 282 282 284 284 284 285 285 285 285 286 286 286 286 286
278 278 277 277 278 278 278 278 278 278 279 279 279 280 280 280 280 281 281 281 281 281 282 282 281 282 283 283 284 285 285 285 286 285 286 286 286 286
277 277 277 277 276 277 277 277 277 278 278 278 279 279 280 281 281 281 281 282 282 283 283 283 283 283 283 284 284 285 285 285 285 285 285 286 287 286
277 277 277 276 276 276 277 277 277 277 278 279 279 280 280 281 282 282 283 283 284 284 285 285 285 284 284 284 284 285 285 285 285 285 285 285 286 285
275 276 276 276 276 276 276 276 277 277 278 279 279 280 281 282 283 283 284 284 285 285 285 285 285 285 285 285 284 284 285 285 285 285 285 285 285 285
275 276 276 275 275 275 275 276 276 277 277 278 279 280 281 281 282 283 284 284 285 285 286 286 286 286 286 286 286 286 286 286 286 286 285 285 285 285
276 275 275 275 274 274 274 275 275 276 277 278 279 280 280 281 281 282 282 283 284 284 285 285 286 286 285 285 286 286 286 286 285 286 285 285 285 284
278 276 275 275 275 274 274 274 273 274 276 278 278 279 280 280 280 280 281 281 282 283 283 284 284 285 285 285 286 286 286 286 286 286 286 286 285 285
277 277 275 275 275 274 274 274 273 273 274 276 278 278 279 279 279 279 280 280 280 281 281 282 283 283 283 284 284 284 284 285 285 285 285 285 284 285
277 277 276 276 275 275 275 274 274 274 274 275 277 277 278 278 279 279 279 279 279 279 280 280 281 282 283 282 282 283 283 284 283 283 283 283 283 283
278 277 276 276 275 275 275 276 275 274 274 274 274 275 276 277 278 278 278 278 278 278 279 281 281 282 282 282 282 282 283 283 282 282 282 282 282 282